COSMOS 2251 DEB, 36047

Orbit data source: Space-Track

COSMOS 2251 DEB, 36047 is space debris in LEO originally from a launch on Wed, 16 Jun 1993 UTC launched from the Plesetsk Missile And Space Complex (PKMTR). The debris from Iridium 33, an American commercial communications satellite, has been tracked extensively since its accidental collision with the defunct Russian satellite Cosmos 2251 in 2009. This event, occurring at high speed in low Earth orbit (LEO), generated thousands of pieces of space debris, significantly increasing the risk of further collisions. The Iridium 33 debris cloud has impacted space traffic management and orbital debris mitigation strategies, making it a subject of ongoing study in space situational awareness.

Loading next visibility...
Identifier
36047, 1993-036AXJ
Orbit
LEO
Country
Flag of CISCIS
Related business
Manufacturer
Unknown
Mission
Spacecraft
Bus & Motor
Unknown
Mass
Unknown
Launch date (UTC)
1993-06-16 (33 years ago)
Launch vehicle
Unknown
Launch site
Plesetsk Missile And Space Complex (PKMTR)
Object type
Payload
Rocket body
Debris
Shape & HBR
Unknown shape, 0.1 m
Radar Cross Section
Small (<0.1 m²)

Expand to show TLE details & history
Last TLE update: 2 days ago

TLE from 2 days ago
0 COSMOS 2251 DEB
1 36047U 93036AXJ 26256.36504396  .00023832  00000-0  13092-2 0  9993
2 36047  74.0193 131.0305 0009020 130.4571 229.7411 15.13997755700725
Epoch: 2026-09-13T08:45Z
TLE epoch observation values (Epoch: 2026-09-13T08:45:39.798Z)
Latitude
-0.00001°
Longitude
7.25393°
Altitude
530.754 km
Speed
7.595 km/s
True Right ascension
08h 44m 07s
True Declination
0° 00' 00"
Sunlit
Object was in daylight at epoch
Visualization orbit readout
Latitude
Unknown
Longitude
Unknown
Altitude
Unknown
Speed
Unknown
Apparent Right ascension
Unknown
Apparent Declination
Unknown
Sunlit
N/A
Visualization observer readout
Local Sidereal Time
15:25:22
Azimuth
Unknown
Elevation
Unknown
Doppler factor
Unknown
Orbital elements
Apogee altitude
527.786 km
Perigee altitude
515.339 km
Semi-major axis
6,899.7 km
Eccentricity
0.0009
Inclination
74.0193°
RAAN
131.0305°
Arg. of periapsis
130.4571°
True anomaly
229.66228°
Mean anomaly
229.7411°
Eccentric anomaly
229.70168°
Mean motion
3.78702 °/min
Orbital period
95.06 mins
BSTAR
0.0013092
Loading maneuver chart data...
Computing Atmospheric mass density...

Documentation

Showing up to 5 results
|